{"data":{"norad_id":62301,"epoch":"2026-05-24T12:51:35.101152Z","epoch_age_seconds":111008,"freshness":"FRESH","line1":"1 62301U 24239A   26144.53582293  .00010610  00000+0  37010-3 0  9997","line2":"2 62301  53.1584 189.0314 0001082  88.7045 271.4079 15.30176785 81179","mean_motion":15.30176785,"eccentricity":0.0001082,"inclination_deg":53.1584,"raan_deg":189.0314,"arg_perigee_deg":88.7045,"mean_anomaly_deg":271.4079,"bstar":0.0003701,"rev_number":8117,"period_min":94.106773420955,"perigee_km":474.54284590717,"apogee_km":476.02592629512,"semimajor_km":6853.4213861011,"source":"CELESTRAK","updated_at":"2026-05-25T13:38:19.646949Z"}}